Location: Brookview Estates
(36.0476°N, 86.6931°W)
Time: 12:41:46
(UTC+00:00)

STARLINK-24 - Pass Details

Date: 30 March 2020
Orbit: 526 x 528 km, 53.0° (Epoch: 27 May)

Event Time Altitude Azimuth Distance (km) Brightness Sun altitude
Exits shadow 10:09:56 29° 299° (WNW) 986 4.5 -17.7°
Maximum altitude 10:10:47 32° 324° (NW) 920 4.6 -17.5°
Drops below altitude 10° 10:14:26 10° 29° (NNE) 1,775 6.9 -16.8°
Sets 10:16:50 0° 40° (NE) 2,668 8.1 -16.3°
